www.pogodaiklimat.ru

Погода и климат >> Архив погоды >> Россия >> Ростовская область >> Ростов-на-Дону


АРХИВ ПОГОДЫ в Ростове-на-Дону

Время (UTC), дата Ветер
(напр.,м/с)
 
Видим.   Явления Облачность Т
(С)
Тd
(С)
f
(%)
Тe
(С)
Тes
(С)
Комфортность P
(гПа)
Po
(гПа)
Тmin
(С)
Tmax
(С)
R
(мм)
R24
(мм)
S
(см)
03 15.04 н/о 10/5 600 м
[Cb calv Ac trans]
+11.5 +9.2 86 1008.6 998.7 +10.8 2
06 15.04 н/о слаб. ливневой дождь 10/6 600 м
[Cb calv Ac und]
+10.9 +10.0 94 1011.1 1001.1
09 15.04 н/о слаб. ливневой дождь 10/5 600 м
[Cb calv Ac und]
+12.3 +11.6 95 1011.5 1001.6
12 15.04 н/о в посл. час ливневой дождь 10/4 600 м
[Cb calv Ac und]
+13.9 +12.7 92 1012.2 1002.3
15 15.04 н/о 5/0
[Ac trans Ci fib]
+14.7 +10.0 73 1012.0 1002.1 +16.6 7
18 15.04 н/о 4/0
[Ac trans]
+12.2 +11.1 93 1013.2 1003.2
21 15.04 н/о 8/0
[Ac trans]
+10.3 +9.8 97 1013.8 1003.8
00 16.04 н/о туман ?/? +9.9 +9.9 100 1013.5 1003.5
03 16.04 н/о туман ?/? +10.8 +10.8 100 1013.5 1003.5 +9.9
06 16.04 н/о {туман} 10/6 600 м
[Cb calv Ac und]
+11.2 +11.2 100 1014.3 1004.3
09 16.04 н/о слаб. ливневой дождь 10/5 600 м
[Cb calv Ac und]
+13.2 +10.4 83 1013.8 1003.9
12 16.04 н/о слаб. ливневой дождь 10/5 600 м
[Cb calv Ac und]
+12.7 +10.7 88 1013.3 1003.4
15 16.04 н/о слаб. ливневой дождь 10/6 600 м
[Cb calv Ac und]
+12.4 +11.0 91 1013.2 1003.2 +13.6 3
18 16.04 н/о слаб. ливневой дождь 10/5 600 м
[Cb calv Ac und]
+11.2 +10.7 97 1013.7 1003.7
21 16.04 н/о {ливн. осадки} 10/6 300 м
[St Ac und]
+10.9 +10.1 95 1013.2 1003.2
00 17.04 н/о слаб. морось 10/6 300 м
[St Ac und]
+9.8 +8.7 93 1012.8 1002.8
03 17.04 н/о слаб. ливневой дождь {морось} 10/6 600 м
[Cb calv Ac und]
+9.2 +7.6 90 1012.5 1002.4 +9.1 4
06 17.04 н/о слаб. ливневой дождь 10/5 600 м
[Cb calv Ac und]
+9.1 +7.5 90 1014.1 1004.0 +9.0
09 17.04 н/о слаб. ливневой дождь 10/8 600 м
[Cb calv Ac und]
+7.2 +5.5 89 1016.4 1006.2
12 17.04 н/о слаб. ливневой дождь 10/6 600 м
[Cb calv Ac und]
+6.3 +3.6 83 1018.8 1008.6
15 17.04 н/о слаб. ливневой дождь 10/8 600 м
[Cb calv Ac und]
+7.0 +4.2 82 1019.8 1009.6 +9.3 6
18 17.04 н/о в посл. час ливневой дождь 10/5 600 м
[Cb calv Ac und]
+6.4 +0.5 66 1022.2 1011.9
21 17.04 н/о 10/6 600 м
[Cb calv Ac und]
+5.2 -2.5 58 1023.0 1012.7
00 18.04 н/о ясно +2.9 -4.3 59 1023.6 1013.2
03 18.04 н/о 3/0
[Ac trans]
+1.3 -5.3 61 1024.8 1014.3 +1.2 0.5
06 18.04 н/о 6/0
[Ac trans Ci fib]
+4.1 -5.9 48 1025.9 1015.5
09 18.04 н/о 6/0
[Ci fib]
+8.9 -4.2 39 1025.5 1015.3
12 18.04 н/о 5/0
[Ci fib]
+9.8 -4.4 36 1024.7 1014.5
15 18.04 н/о 3/0
[Ci fib]
+8.6 -6.6 33 1024.3 1014.1 +10.3
18 18.04 н/о 3/0
[Ci fib]
+5.2 -5.0 48 1025.5 1015.1
21 18.04 н/о 1/0
[Ci fib]
+5.0 -5.3 47 1025.0 1014.7
00 19.04 н/о 3/0
[Ci fib]
+2.7 -5.0 57 1024.3 1013.9
03 19.04 н/о 4/0
[Ci fib]
+1.7 -5.6 58 1024.3 1013.8 +2.4
06 19.04 н/о 6/0
[Ac trans Ci fib]
+5.4 -5.1 47 1024.6 1014.3
09 19.04 н/о 8/0
[Ac trans Ci fib]
+8.9 -7.6 30 1024.2 1014.0
12 19.04 н/о 9/4 600 м
[Cb calv Ac trans]
+9.9 -8.2 27 1023.5 1013.3
15 19.04 н/о 5/0
[Ci fib]
+9.0 -7.3 31 1023.5 1013.3 +10.9
18 19.04 н/о 4/0
[Ac trans]
+7.0 -8.2 33 1024.7 1014.4
21 19.04 н/о ясно +5.1 -6.6 43 1024.8 1014.4
00 20.04 н/о ясно +4.0 -7.4 43 1024.6 1014.2
03 20.04 н/о ясно +2.9 -5.7 53 1024.6 1014.2 +2.5
06 20.04 н/о 3/0
[Ci fib]
+8.0 -6.0 36 1025.2 1014.9
09 20.04 н/о 3/0
[Ci fib]
+11.9 -9.9 21 1024.8 1014.7
12 20.04 н/о ясно +13.3 -10.1 19 1023.9 1013.8
15 20.04 н/о ясно +12.2 -9.9 20 1023.6 1013.5 +13.8
18 20.04 н/о ясно +8.5 -6.9 33 1024.7 1014.5
21 20.04 н/о ясно +5.6 -5.0 46 1024.7 1014.4
00 21.04 н/о ясно +4.3 -5.7 48 1024.0 1013.6
03 21.04 н/о ясно +3.0 -5.1 55 1024.3 1013.9 +2.8
06 21.04 н/о 1/0
[Ci fib]
+10.7 -5.6 31 1024.5 1014.3
09 21.04 н/о ясно +14.6 -6.9 22 1023.6 1013.6
12 21.04 н/о 3/0
[Ac trans]
+15.8 -7.3 20 1022.7 1012.7
15 21.04 н/о 3/0
[Ac trans]
+14.3 -7.1 22 1022.5 1012.5 +16.2
18 21.04 н/о ясно +10.8 -5.8 31 1023.8 1013.7
21 21.04 н/о ясно +6.6 -4.0 47 1024.3 1014.0

 

Местоположение метеостанции Ростов-на-Дону (Ростовская область, Россия): широта 47.27 долгота 39.82 высота над уровнем моря 75 м.

В архиве по умолчанию представлена погода в Ростове-на-Дону за последнюю неделю. Архивные данные за месяц целиком и за предыдущие месяцы, начиная с января 2011 года, Вы можете получить, выбрав интересующий диапазон дат из раскрывающегося списка и нажав кнопку "Ввод!".


*Определитесь, кто Вы:
робот инопланетянин человек

Внимание! Время в таблицах - всемирное. Для получения местного времени необходимо прибавить поправку, которая равна 3 ч.

Смотрите также архив погоды в соседних городах и на ближайших метеорологических станциях:

Погода в Аэропорту Платов (Ростовская область, Россия) (26 км)
Погода в Шахтах (Ростовская область, Россия) (59 км)
Погода в Зерноград (Ростовская область, Россия) (60 км)
Погода в Таганроге (Ростовская область, Россия) (70 км)
Погода в Матвеевом Кургане (Ростовская область, Россия) (78 км)
Погода в Семикаракорске (Ростовская область, Россия) (81 км)
Погода в Маргаритово (Ростовская область, Россия) (81 км)
Погода в Кущевской (Краснодарский край, Россия) (84 км)
Погода в Константиновске (Ростовская область, Россия) (102 км)
Погода в Староминская (Краснодарский край, Россия) (102 км)

Пояснения к столбцам:

Ветер - указаны скорость ветра в м/с - средняя за 10 мин, порывы в срок и между сроками (в фигурных скобках) и направление, откуда дует ветер: С - северный, СВ - северо-восточный, В - восточный, ЮВ - юго-восточный, Ю - южный, ЮЗ - юго-западный, З - западный, СЗ - северо-западный.
Видимость - горизонтальная дальность видимости в метрах или километрах. При видимости от 1 до 10 км при отсутствии осадков обычно наблюдается дымка, при ухудшении видимости до 1 км и менее - туман. В сухую погоду видимость может ухудшаться дымом, пылью или мглою.
Явления - указаны атмосферные явления, наблюдавшиеся в срок или в последний час перед сроком; фигурными скобками обозначены явления, наблюдавшиеся между сроками (за 1-3 часа до срока); квадратными скобками обозначены град или гололедные отложения с указанием их диаметра в мм.
Облачность - указаны через наклонную черту общая и нижняя облачность в баллах и высота нижней границы облаков в метрах; квадратными скобками обозначены формы облаков: Ci - перистые, Cs - перисто-слоистые, Cc - перисто-кучевые, Ac - высококучевые, As - высокослоистые, Sc - слоисто-кучевые, Ns - слоисто-дождевые, Cu - кучевые, Cb - кучево-дождевые. Подробнее классификацию облаков см. в Атласе облаков (PDF).
T - Температура воздуха - температура, измеренная на высоте 2 м над землей.
Td - Температура точки росы - температура, при понижении до которой содержащийся в воздухе водяной пар достигнет насыщения.
f - Относительная влажность воздуха - влажноcть воздуха, измеренная на высоте 2 м над землей.
Te - Эффективная температура - температура, которую ощущает одетый по сезону человек в тени. Характеристика душности погоды. При расчете учитывается влияние влажности воздуха и скорости ветра на теплоощущения человека.
Tes - Эффективная температура на солнце - температура, которую ощущает человек, с поправкой на солнечный нагрев. Характеристика знойности погоды. Зависит от высоты солнца над горизонтом, облачности и скорости ветра. Ночью, в пасмурную погоду, а также при ветре 12 м/с и более поправка равна нулю.
P - Атмосферное давление - приведенное к уровню моря атмосферное давление.
Po - Атмосферное давление - измеренное на уровне метеостанции атмосферное давление.
Tmin - Минимальная температура - минимум температуры воздуха на высоте 2 м над землей.
Tmax - Максимальная температура - максимум температуры воздуха на высоте 2 м над землей.
R - Количество осадков - Количество выпавших осадков за период времени, мм. При наведении курсора мыши на число - период времени, за который выпало указанное количество осадков.
R24 - Количество осадков - Количество выпавших осадков за 24 часа, мм.
S - Снежный покров - Высота снежного покрова, см. При наведении курсора мыши на число - состояние снежного покрова и степень покрытия местности в баллах.